Location: Newark
(18.8198°N, 82.1672°E)
Time: 07:52:10
(UTC+00:00)

OTV 5 (USA 277) - Visible Passes

Search period start: 19 August 2019 00:00
Search period end: 29 August 2019 00:00
Orbit: 305 x 329 km, 54.5° (Epoch: 11 August)

Date Brightness Start Highest point End Pass type
(mag) Time Alt. Az. Time Alt. Az. Time Alt. Az.
21 Aug ? 14:08:49 10° SSW 14:10:19 29° SSW 14:10:19 29° SSW visible
21 Aug ? 23:46:53 10° N 23:49:15 28° NE 23:51:37 10° ESE visible
22 Aug ? 14:23:54 10° WSW 14:26:01 21° NW 14:27:28 14° N visible
23 Aug ? 22:42:29 10° NNE 22:44:04 14° NE 22:45:39 10° E visible
24 Aug ? 13:18:17 10° SW 13:20:51 44° NW 13:23:24 10° NNE visible
24 Aug ? 22:58:23 61° NNE 22:58:38 66° NE 23:01:15 10° SE visible
25 Aug ? 13:34:33 10° WNW 13:35:26 11° NW 13:36:20 10° NNW visible
